Cocoa Beach, FL

9:25 PM EST on November 24, 2017 (GMT -0500)
Patrick Air Force Base

Weather History for KCOF - October, 2012

Change the Weather History Date:

Friday, October 26, 2012

  Actual Average Record
Temperature  
Mean Temperature 75 °F -  
Max Temperature 79 °F 79 °F 87 °F (1997)
Min Temperature 71 °F 69 °F 55 °F (2005)
Cooling Degree Days 10    
Growing Degree Days 25 (Base 50)    
Moisture  
Dew Point 69 °F    
Average Humidity 82    
Maximum Humidity 89    
Minimum Humidity 67    
Precipitation  
Precipitation 0.61 in - - ()
Sea Level Pressure  
Sea Level Pressure 29.65 in    
Wind  
Wind Speed 26 mph (NNE)    
Max Wind Speed 38 mph    
Max Gust Speed 55 mph    
Visibility 7 miles    
Events Rain    
Averages and records for this station are not official NWS values.
T = Trace of Precipitation, MM = Missing Value Source: NWS Daily Summary

Daily Weather History Graph

Daily Weather History Graph

Search for Another Location

Airport or City:

Trip Planner

Search our weather history database for the weather conditions in past years. The results will help you decide how hot, cold, wet, or windy it might be!

Date:

Astronomy

Oct. 26, 2012 Rise Set
Actual Time 7:30 AM EDT 6:42 PM EDT
Civil Twilight 7:06 AM EDT 7:06 PM EDT
Nautical Twilight 6:38 AM EDT 7:33 PM EDT
Astronomical Twilight 6:11 AM EDT 8:01 PM EDT
Moon 4:47 PM EDT (10/26) 4:37 AM EDT (10/26)
Length of Visible Light 12h 00m
Length of Day
11h 11m
Waxing Gibbous, 91% of the Moon is Illuminated
Oct 26
Waxing Gibbous
Oct 29
Full
Nov 6
Last Quarter
Nov 13
New
Nov 20
First Quarter

Hourly Weather History & Observations

Time (EDT) Temp. Dew Point Humidity Pressure Visibility Wind Dir Wind Speed Gust Speed Precip Events Conditions
12:55 AM 79.0 °F 68.7 °F 71% 29.76 in 10.0 mi NNE 24.2 mph 31.1 mph N/A   Clear
1:55 AM 79.0 °F 69.1 °F 72% 29.74 in 10.0 mi NNE 27.6 mph 33.4 mph N/A   Scattered Clouds
2:03 AM 77.0 °F 69.8 °F 78% 29.75 in 5.0 mi ENE 28.8 mph 34.5 mph N/A Rain Light Rain
2:04 AM 77.0 °F 69.8 °F 78% 29.75 in 4.0 mi ENE 25.3 mph 34.5 mph N/A Rain Light Rain
2:09 AM 73.4 °F 69.8 °F 88% 29.74 in 2.5 mi NE 27.6 mph 35.7 mph N/A Rain Light Rain
2:11 AM 73.4 °F 69.8 °F 88% 29.74 in 2.0 mi ENE 23.0 mph 35.7 mph N/A Rain Heavy Rain
2:16 AM 71.6 °F 68.0 °F 88% 29.74 in 2.5 mi ENE 19.6 mph 35.7 mph N/A Rain Light Rain
2:18 AM 71.6 °F 68.0 °F 88% 29.74 in 3.0 mi NE 20.7 mph 35.7 mph N/A Rain Light Rain
2:19 AM 71.6 °F 66.2 °F 83% 29.74 in 3.0 mi NE 21.9 mph 28.8 mph N/A Rain Rain
2:46 AM 73.4 °F 69.8 °F 88% 29.72 in 10.0 mi NNE 24.2 mph 31.1 mph N/A   Scattered Clouds
2:55 AM 73.9 °F 69.6 °F 86% 29.72 in 10.0 mi NE 21.9 mph - 0.10 in   Scattered Clouds
3:16 AM 75.2 °F 68.0 °F 78% 29.71 in 10.0 mi NE 29.9 mph 39.1 mph N/A   Light Drizzle
3:42 AM 71.6 °F 66.2 °F 83% 29.70 in 10.0 mi NNE 16.1 mph - N/A   Mostly Cloudy
3:55 AM 72.5 °F 65.3 °F 78% 29.69 in 10.0 mi NNE 19.6 mph - 0.02 in   Mostly Cloudy
4:55 AM 74.8 °F 68.0 °F 79% 29.69 in 10.0 mi NNE 35.7 mph 52.9 mph 0.01 in   Scattered Clouds
5:16 AM 71.6 °F 68.0 °F 88% 29.68 in 10.0 mi NNE 23.0 mph 32.2 mph N/A   Overcast
5:35 AM 73.4 °F 69.8 °F 88% 29.68 in 5.0 mi NE 29.9 mph 34.5 mph N/A Rain Heavy Rain
5:40 AM 73.4 °F 69.8 °F 88% 29.68 in 1.8 mi NNE 25.3 mph 35.7 mph N/A Rain Rain
5:43 AM 73.4 °F 69.8 °F 88% 29.67 in 1.8 mi NE 24.2 mph 35.7 mph N/A Rain Rain
5:47 AM 73.4 °F 69.8 °F 88% 29.67 in 3.0 mi NE 18.4 mph 32.2 mph N/A Rain Light Rain
5:55 AM 72.7 °F 69.1 °F 88% 29.67 in 6.0 mi NE 19.6 mph 32.2 mph 0.11 in Rain Light Rain
5:56 AM 73.4 °F 69.8 °F 88% 29.67 in 10.0 mi NE 23.0 mph - N/A   Mostly Cloudy
6:32 AM 77.0 °F 69.8 °F 78% 29.66 in 10.0 mi NNE 28.8 mph 38.0 mph N/A   Light Drizzle
6:44 AM 77.0 °F 68.0 °F 74% 29.66 in 10.0 mi NNE 25.3 mph 40.3 mph N/A   Scattered Clouds
6:55 AM 77.2 °F 68.4 °F 74% 29.66 in 10.0 mi NNE 27.6 mph 36.8 mph 0.00 in   Partly Cloudy
7:15 AM 77.0 °F 69.8 °F 78% 29.65 in 8.0 mi NNE 34.5 mph 41.4 mph N/A Rain Light Rain
7:29 AM 77.0 °F 69.8 °F 78% 29.66 in 10.0 mi NNE 26.5 mph 38.0 mph N/A   Partly Cloudy
7:55 AM 77.4 °F 70.2 °F 78% 29.67 in 10.0 mi NNE 28.8 mph 38.0 mph 0.01 in   Partly Cloudy
8:55 AM 78.4 °F 68.2 °F 71% 29.67 in 10.0 mi NNE 33.4 mph 40.3 mph N/A   Clear
8:59 AM 78.8 °F 68.0 °F 69% 29.67 in 10.0 mi NNE 36.8 mph 55.2 mph N/A Rain Light Rain
9:06 AM 71.6 °F 68.0 °F 88% 29.67 in 1.8 mi NE 33.4 mph 55.2 mph N/A Rain Heavy Rain
9:07 AM 71.6 °F 68.0 °F 88% 29.67 in 1.5 mi NE 36.8 mph 55.2 mph N/A Rain Heavy Rain
9:18 AM 73.4 °F 69.8 °F 88% 29.67 in 3.0 mi NNE 26.5 mph 49.5 mph N/A Rain Light Rain
9:23 AM 73.4 °F 69.8 °F 88% 29.67 in 8.0 mi NNE 23.0 mph 36.8 mph N/A   Overcast
9:31 AM 75.2 °F 69.8 °F 83% 29.67 in 6.0 mi NE 31.1 mph 35.7 mph N/A Rain Light Rain
9:55 AM 75.0 °F 66.2 °F 74% 29.67 in 10.0 mi NNE 28.8 mph 38.0 mph 0.09 in   Overcast
10:30 AM 78.8 °F 69.8 °F 74% 29.67 in 9.0 mi North 29.9 mph 43.7 mph N/A Rain Light Rain
10:41 AM 75.2 °F 69.8 °F 83% 29.67 in 4.0 mi North 32.2 mph 51.8 mph N/A   Haze
10:55 AM 77.7 °F 65.8 °F 67% 29.67 in 10.0 mi NNE 35.7 mph 46.0 mph 0.02 in   Scattered Clouds
11:46 AM 78.8 °F 69.8 °F 74% 29.67 in 10.0 mi North 23.0 mph 38.0 mph N/A Rain Light Rain
11:55 AM 76.3 °F 70.0 °F 81% 29.66 in 6.0 mi North 23.0 mph 28.8 mph 0.01 in Rain Light Rain
11:59 AM 75.2 °F 71.6 °F 89% 29.65 in 7.0 mi North 19.6 mph 31.1 mph N/A   Mostly Cloudy
12:06 PM 77.0 °F 71.6 °F 83% 29.64 in 6.0 mi North 19.6 mph 27.6 mph N/A Rain Light Rain
12:15 PM 77.0 °F 69.8 °F 78% 29.64 in 8.0 mi North 23.0 mph 29.9 mph N/A   Mostly Cloudy
12:25 PM 77.0 °F 69.8 °F 78% 29.64 in 9.0 mi North 24.2 mph 32.2 mph N/A Rain Light Rain
12:30 PM 75.2 °F 71.6 °F 89% 29.64 in 2.5 mi NNE 36.8 mph 44.9 mph N/A Rain Light Rain
12:32 PM 75.2 °F 71.6 °F 89% 29.64 in 1.8 mi NNE 26.5 mph 44.9 mph N/A Rain Light Rain
12:36 PM 75.2 °F 71.6 °F 89% 29.64 in 1.5 mi NNE 29.9 mph 44.9 mph N/A Rain Light Rain
12:38 PM 75.2 °F 69.8 °F 83% 29.64 in 1.8 mi NNE 28.8 mph 44.9 mph N/A Rain Light Rain
12:40 PM 75.2 °F 69.8 °F 83% 29.63 in 3.0 mi NNE 29.9 mph 36.8 mph N/A   Haze
12:55 PM 76.1 °F 68.7 °F 78% 29.64 in 10.0 mi NNE 36.8 mph 44.9 mph 0.09 in Rain Light Rain
1:00 PM 75.2 °F 68.0 °F 78% 29.63 in 9.0 mi North 25.3 mph 35.7 mph N/A   Scattered Clouds
1:07 PM 75.2 °F 69.8 °F 83% 29.63 in 10.0 mi North 25.3 mph 35.7 mph N/A Rain Light Rain
1:26 PM 75.2 °F 69.8 °F 83% 29.62 in 8.0 mi North 23.0 mph 32.2 mph N/A   Mostly Cloudy
1:33 PM 75.2 °F 71.6 °F 89% 29.62 in 9.0 mi North 20.7 mph 29.9 mph N/A Rain Light Rain
1:38 PM 75.2 °F 71.6 °F 89% 29.61 in 2.5 mi North 26.5 mph 42.6 mph N/A Rain Light Rain
1:45 PM 73.4 °F 69.8 °F 88% 29.61 in 3.0 mi North 28.8 mph 42.6 mph N/A Rain Light Rain
1:55 PM 72.9 °F 68.4 °F 86% 29.61 in 5.0 mi North 25.3 mph 42.6 mph 0.02 in Rain Light Rain
2:07 PM 73.4 °F 69.8 °F 88% 29.60 in 7.0 mi North 20.7 mph 32.2 mph N/A Rain Light Rain
2:12 PM 73.4 °F 69.8 °F 88% 29.61 in 7.0 mi North 25.3 mph 47.2 mph N/A Rain Light Rain
2:14 PM 73.4 °F 68.0 °F 83% 29.60 in 2.0 mi NNE 38.0 mph 50.6 mph N/A Rain Light Rain
2:21 PM 71.6 °F 66.2 °F 83% 29.60 in 1.5 mi North 21.9 mph 50.6 mph N/A Rain Light Rain
2:24 PM 71.6 °F 68.0 °F 88% 29.60 in 3.0 mi North 17.3 mph 31.1 mph N/A Rain Light Rain
2:25 PM 71.6 °F 68.0 °F 88% 29.59 in 4.0 mi North 23.0 mph 38.0 mph N/A Rain Light Rain
2:55 PM 73.8 °F 69.8 °F 87% 29.59 in 7.0 mi North 20.7 mph 31.1 mph 0.06 in Rain Light Rain
3:14 PM 75.2 °F 68.0 °F 78% 29.58 in 10.0 mi North 26.5 mph 41.4 mph N/A   Partly Cloudy
3:55 PM 77.2 °F 68.0 °F 73% 29.57 in 10.0 mi North 26.5 mph 38.0 mph 0.00 in   Partly Cloudy
9:55 PM 74.5 °F 64.0 °F 70% 29.56 in 10.0 mi North 26.5 mph 36.8 mph 0.01 in   Partly Cloudy
10:05 PM 75.2 °F 64.4 °F 69% 29.55 in 10.0 mi NNW 31.1 mph 43.7 mph N/A   Light Drizzle
10:55 PM 73.0 °F 67.5 °F 83% 29.54 in 8.0 mi NNW 29.9 mph 40.3 mph 0.03 in Rain Heavy Rain
11:04 PM 73.4 °F 68.0 °F 83% 29.54 in 10.0 mi NNW 24.2 mph 36.8 mph N/A Rain Rain
11:14 PM 73.4 °F 68.0 °F 83% 29.54 in 10.0 mi North 17.3 mph 31.1 mph N/A   Overcast
11:55 PM 72.9 °F 69.3 °F 88% 29.53 in 10.0 mi NW 25.3 mph 31.1 mph 0.03 in   Overcast